| time (UTC) | temp F | wind direction | speed MPH | gust MPH | rain 1hr in | rain 24hr in | rain mn in | humidity % | barometer mb |
| 20260906224030 | 81 | 274 | 6.0 | 9.0 | 0.00 | 0.00 | 0.00 | 22 | 1019.2 |
| 20260906223526 | 81 | 313 | 7.0 | 11.0 | 0.00 | 0.00 | 0.00 | 23 | 1019.2 |
| 20260906223025 | 81 | 294 | 9.0 | 12.0 | 0.00 | 0.00 | 0.00 | 22 | 1019.2 |
| 20260906222524 | 81 | 292 | 6.0 | 10.0 | 0.00 | 0.00 | 0.00 | 23 | 1019.2 |
| 20260906222022 | 81 | 282 | 11.0 | 15.0 | 0.00 | 0.00 | 0.00 | 22 | 1019.1 |
| 20260906221521 | 81 | 279 | 8.0 | 14.0 | 0.00 | 0.00 | 0.00 | 23 | 1019.2 |
| 20260906221017 | 82 | 300 | 6.0 | 14.0 | 0.00 | 0.00 | 0.00 | 23 | 1019.1 |
| 20260906220516 | 82 | 259 | 8.0 | 9.0 | 0.00 | 0.00 | 0.00 | 23 | 1019.2 |
| 20260906220012 | 82 | 310 | 6.0 | 9.0 | 0.00 | 0.00 | 0.00 | 23 | 1019.5 |
| 20260906215506 | 81 | 281 | 7.0 | 14.0 | 0.00 | 0.00 | 0.00 | 24 | 1019.3 |
| 20260906215003 | 79 | 290 | 7.0 | 11.0 | 0.00 | 0.00 | 0.00 | 24 | 1019.6 |
| 20260906214502 | 79 | 60 | 2.0 | 6.0 | 0.00 | 0.00 | 0.00 | 25 | 1019.6 |
| 20260906213957 | 80 | 300 | 5.0 | 10.0 | 0.00 | 0.00 | 0.00 | 25 | 1019.6 |
| 20260906213457 | 80 | 311 | 5.0 | 6.0 | 0.00 | 0.00 | 0.00 | 23 | 1019.6 |
| 20260906212955 | 80 | 299 | 4.0 | 10.0 | 0.00 | 0.00 | 0.00 | 24 | 1019.7 |
| 20260906212450 | 82 | 316 | 3.0 | 9.0 | 0.00 | 0.00 | 0.00 | 22 | 1020.0 |
| 20260906211946 | 82 | 335 | 5.0 | 6.0 | 0.00 | 0.00 | 0.00 | 22 | 1020.1 |
| 20260906211446 | 82 | 323 | 5.0 | 8.0 | 0.00 | 0.00 | 0.00 | 23 | 1020.0 |
| 20260906210942 | 79 | 288 | 3.0 | 7.0 | 0.00 | 0.00 | 0.00 | 25 | 1020.3 |
| 20260906210437 | 77 | 310 | 3.0 | 3.0 | 0.00 | 0.00 | 0.00 | 28 | 1020.1 |
| 20260906205936 | 77 | 43 | 2.0 | 3.0 | 0.00 | 0.00 | 0.00 | 28 | 1020.2 |
| 20260906205432 | 78 | 11 | 1.0 | 4.0 | 0.00 | 0.00 | 0.00 | 27 | 1020.5 |
| 20260906204928 | 79 | 298 | 3.0 | 4.0 | 0.00 | 0.00 | 0.00 | 26 | 1020.3 |
| 20260906204422 | 81 | 80 | 4.0 | 5.0 | 0.00 | 0.00 | 0.00 | 24 | 1020.5 |
| 20260906203921 | 82 | 88 | 4.0 | 6.0 | 0.00 | 0.00 | 0.00 | 23 | 1020.3 |
| 20260906203417 | 82 | 72 | 3.0 | 6.0 | 0.00 | 0.00 | 0.00 | 25 | 1020.7 |
| 20260906202914 | 82 | 14 | 2.0 | 6.0 | 0.00 | 0.00 | 0.00 | 24 | 1020.7 |
| 20260906202413 | 81 | 85 | 3.0 | 8.0 | 0.00 | 0.00 | 0.00 | 24 | 1020.5 |
| 20260906201913 | 80 | 39 | 3.0 | 7.0 | 0.00 | 0.00 | 0.00 | 24 | 1020.7 |
| 20260906201408 | 81 | 86 | 4.0 | 10.0 | 0.00 | 0.00 | 0.00 | 24 | 1021.1 |
| 20260906200903 | 80 | 4 | 3.0 | 6.0 | 0.00 | 0.00 | 0.00 | 24 | 1021.2 |
| 20260906200400 | 79 | 334 | 2.0 | 7.0 | 0.00 | 0.00 | 0.00 | 25 | 1021.2 |
| 20260906195859 | 79 | 286 | 3.0 | 7.0 | 0.00 | 0.00 | 0.00 | 25 | 1021.1 |
| 20260906195356 | 78 | 314 | 5.0 | 5.0 | 0.00 | 0.00 | 0.00 | 26 | 1021.1 |
| 20260906194852 | 78 | 296 | 6.0 | 6.0 | 0.00 | 0.00 | 0.00 | 25 | 1021.2 |
| 20260906194347 | 79 | 8 | 5.0 | 6.0 | 0.00 | 0.00 | 0.00 | 27 | 1021.4 |
| 20260906193842 | 79 | 324 | 5.0 | 9.0 | 0.00 | 0.00 | 0.00 | 24 | 1021.1 |
| 20260906193337 | 78 | 334 | 6.0 | 6.0 | 0.00 | 0.00 | 0.00 | 25 | 1021.4 |
| 20260906192833 | 79 | 325 | 5.0 | 7.0 | 0.00 | 0.00 | 0.00 | 25 | 1021.2 |
| 20260906192327 | 79 | 312 | 7.0 | 7.0 | 0.00 | 0.00 | 0.00 | 25 | 1021.4 |
| 20260906191826 | 80 | 5 | 5.0 | 6.0 | 0.00 | 0.00 | 0.00 | 24 | 1021.5 |
| 20260906191321 | 79 | 13 | 2.0 | 5.0 | 0.00 | 0.00 | 0.00 | 26 | 1021.5 |
| 20260906190815 | 78 | 341 | 3.0 | 7.0 | 0.00 | 0.00 | 0.00 | 25 | 1021.4 |
| 20260906190315 | 78 | 309 | 4.0 | 8.0 | 0.00 | 0.00 | 0.00 | 25 | 1021.7 |
| 20260906185814 | 78 | 298 | 7.0 | 11.0 | 0.00 | 0.00 | 0.00 | 24 | 1021.7 |
| 20260906185314 | 79 | 317 | 8.0 | 12.0 | 0.00 | 0.00 | 0.00 | 24 | 1021.9 |
| 20260906184808 | 79 | 343 | 4.0 | 7.0 | 0.00 | 0.00 | 0.00 | 23 | 1022.0 |
| 20260906184303 | 77 | 3 | 5.0 | 10.0 | 0.00 | 0.00 | 0.00 | 25 | 1022.1 |
| 20260906183759 | 77 | 306 | 5.0 | 8.0 | 0.00 | 0.00 | 0.00 | 25 | 1022.2 |
| 20260906183255 | 77 | 325 | 7.0 | 9.0 | 0.00 | 0.00 | 0.00 | 24 | 1022.1 |
| 20260906182755 | 77 | 318 | 6.0 | 9.0 | 0.00 | 0.00 | 0.00 | 25 | 1022.6 |
| 20260906182251 | 76 | 294 | 7.0 | 10.0 | 0.00 | 0.00 | 0.00 | 26 | 1022.4 |
| 20260906181746 | 76 | 314 | 5.0 | 7.0 | 0.00 | 0.00 | 0.00 | 25 | 1022.5 |
| 20260906181243 | 76 | 315 | 8.0 | 11.0 | 0.00 | 0.00 | 0.00 | 26 | 1022.9 |
| 20260906180743 | 75 | 316 | 5.0 | 10.0 | 0.00 | 0.00 | 0.00 | 24 | 1022.6 |
| 20260906180238 | 77 | 308 | 7.0 | 10.0 | 0.00 | 0.00 | 0.00 | 25 | 1022.6 |
| 20260906175735 | 77 | 345 | 5.0 | 8.0 | 0.00 | 0.00 | 0.00 | 26 | 1023.0 |
| 20260906175231 | 76 | 338 | 3.0 | 9.0 | 0.00 | 0.00 | 0.00 | 27 | 1023.4 |
| 20260906174730 | 76 | 317 | 6.0 | 9.0 | 0.00 | 0.00 | 0.00 | 26 | 1023.5 |
| 20260906174229 | 76 | 281 | 4.0 | 6.0 | 0.00 | 0.00 | 0.00 | 25 | 1023.2 |
| 20260906173724 | 77 | 336 | 4.0 | 8.0 | 0.00 | 0.00 | 0.00 | 26 | 1023.4 |
| 20260906173221 | 77 | 9 | 4.0 | 5.0 | 0.00 | 0.00 | 0.00 | 25 | 1023.1 |
| 20260906172719 | 76 | 341 | 4.0 | 6.0 | 0.00 | 0.00 | 0.00 | 28 | 1023.6 |
| 20260906172215 | 75 | 21 | 2.0 | 6.0 | 0.00 | 0.00 | 0.00 | 27 | 1023.5 |
| 20260906171710 | 75 | 54 | 4.0 | 7.0 | 0.00 | 0.00 | 0.00 | 26 | 1023.6 |
| 20260906171205 | 75 | 330 | 3.0 | 5.0 | 0.00 | 0.00 | 0.00 | 26 | 1023.6 |
| 20260906170701 | 75 | 349 | 3.0 | 5.0 | 0.00 | 0.00 | 0.00 | 27 | 1023.6 |
| 20260906170201 | 75 | 20 | 3.0 | 9.0 | 0.00 | 0.00 | 0.00 | 25 | 1023.6 |
| 20260906165657 | 74 | 18 | 2.0 | 5.0 | 0.00 | 0.00 | 0.00 | 29 | 1023.9 |
| 20260906165152 | 75 | 10 | 3.0 | 4.0 | 0.00 | 0.00 | 0.00 | 29 | 1023.7 |
| 20260906164646 | 75 | 349 | 4.0 | 5.0 | 0.00 | 0.00 | 0.00 | 30 | 1023.9 |
| 20260906164141 | 74 | 326 | 3.0 | 3.0 | 0.00 | 0.00 | 0.00 | 29 | 1024.0 |
| 20260906163637 | 73 | 335 | 2.0 | 3.0 | 0.00 | 0.00 | 0.00 | 32 | 1023.9 |
| 20260906163132 | 72 | 12 | 2.0 | 5.0 | 0.00 | 0.00 | 0.00 | 35 | 1024.1 |
| 20260906162629 | 71 | 343 | 2.0 | 4.0 | 0.00 | 0.00 | 0.00 | 32 | 1024.0 |
| 20260906162130 | 70 | 31 | 3.0 | 4.0 | 0.00 | 0.00 | 0.00 | 34 | 1024.1 |
| 20260906161629 | 70 | 338 | 2.0 | 5.0 | 0.00 | 0.00 | 0.00 | 35 | 1023.9 |
| 20260906161128 | 69 | 69 | 4.0 | 4.0 | 0.00 | 0.00 | 0.00 | 37 | 1024.2 |
| 20260906160627 | 68 | 39 | 1.0 | 4.0 | 0.00 | 0.00 | 0.00 | 38 | 1024.2 |
| 20260906160126 | 67 | 22 | 0.0 | 4.0 | 0.00 | 0.00 | 0.00 | 37 | 1024.1 |
| 20260906155624 | 67 | 86 | 3.0 | 4.0 | 0.00 | 0.00 | 0.00 | 40 | 1023.9 |
| 20260906155120 | 66 | 92 | 2.0 | 5.0 | 0.00 | 0.00 | 0.00 | 43 | 1024.1 |
| 20260906154615 | 64 | 71 | 3.0 | 6.0 | 0.00 | 0.00 | 0.00 | 44 | 1023.7 |
| 20260906154114 | 63 | 120 | 1.0 | 4.0 | 0.00 | 0.00 | 0.00 | 44 | 1024.0 |
| 20260906153613 | 62 | 324 | 0.0 | 3.0 | 0.00 | 0.00 | 0.00 | 47 | 1024.1 |
| 20260906153108 | 62 | 111 | 2.0 | 4.0 | 0.00 | 0.00 | 0.00 | 45 | 1024.0 |
| 20260906152603 | 63 | 67 | 2.0 | 6.0 | 0.00 | 0.00 | 0.00 | 45 | 1024.0 |
| 20260906152103 | 63 | 102 | 4.0 | 5.0 | 0.00 | 0.00 | 0.00 | 46 | 1024.1 |
| 20260906151558 | 61 | 39 | 4.0 | 5.0 | 0.00 | 0.00 | 0.00 | 46 | 1024.4 |
| 20260906151053 | 60 | 130 | 2.0 | 4.0 | 0.00 | 0.00 | 0.00 | 49 | 1024.4 |
| 20260906150548 | 59 | 73 | 3.0 | 4.0 | 0.00 | 0.00 | 0.00 | 52 | 1024.1 |
| 20260906150043 | 58 | 63 | 1.0 | 2.0 | 0.00 | 0.00 | 0.00 | 51 | 1024.1 |
| 20260906145542 | 58 | 30 | 1.0 | 3.0 | 0.00 | 0.00 | 0.00 | 49 | 1024.2 |
| 20260906145038 | 59 | 38 | 2.0 | 4.0 | 0.00 | 0.00 | 0.00 | 47 | 1024.2 |
| 20260906144532 | 58 | 15 | 0.0 | 2.0 | 0.00 | 0.00 | 0.00 | 48 | 1024.2 |
| 20260906144027 | 58 | 82 | 2.0 | 4.0 | 0.00 | 0.00 | 0.00 | 50 | 1024.1 |
| 20260906143522 | 55 | 69 | 1.0 | 2.0 | 0.00 | 0.00 | 0.00 | 54 | 1024.2 |
| 20260906143019 | 54 | 65 | 1.0 | 2.0 | 0.00 | 0.00 | 0.00 | 58 | 1024.4 |
| 20260906142518 | 54 | 107 | 0.0 | 2.0 | 0.00 | 0.00 | 0.00 | 56 | 1024.4 |
| 20260906142014 | 54 | 99 | 0.0 | 3.0 | 0.00 | 0.00 | 0.00 | 57 | 1024.5 |
| 20260906141513 | 54 | 18 | 1.0 | 2.0 | 0.00 | 0.00 | 0.00 | 56 | 1024.4 |
| 20260906141003 | 54 | 107 | 0.0 | 2.0 | 0.00 | 0.00 | 0.00 | 56 | 1024.2 |
| 20260906140503 | 53 | 227 | 0.0 | 2.0 | 0.00 | 0.00 | 0.00 | 56 | 1024.2 |
| 20260906140001 | 53 | 98 | 0.0 | 3.0 | 0.00 | 0.00 | 0.00 | 56 | 1024.1 |
| 20260906135459 | 53 | 162 | 0.0 | 4.0 | 0.00 | 0.00 | 0.00 | 55 | 1024.1 |
| 20260906134954 | 54 | 149 | 0.0 | 2.0 | 0.00 | 0.00 | 0.00 | 54 | 1024.1 |
| 20260906134450 | 54 | 306 | 1.0 | 4.0 | 0.00 | 0.00 | 0.00 | 55 | 1023.9 |
| 20260906133950 | 52 | 316 | 1.0 | 2.0 | 0.00 | 0.00 | 0.00 | 58 | 1024.2 |
| 20260906133446 | 52 | 139 | 1.0 | 2.0 | 0.00 | 0.00 | 0.00 | 59 | 1024.1 |
| 20260906132942 | 53 | 340 | 2.0 | 3.0 | 0.00 | 0.00 | 0.00 | 59 | 1024.0 |
| 20260906132437 | 53 | 142 | 2.0 | 2.0 | 0.00 | 0.00 | 0.00 | 59 | 1023.9 |
| 20260906131932 | 52 | 283 | 1.0 | 3.0 | 0.00 | 0.00 | 0.00 | 59 | 1024.0 |
| 20260906131427 | 52 | 280 | 2.0 | 3.0 | 0.00 | 0.00 | 0.00 | 59 | 1023.7 |
| 20260906130923 | 51 | 268 | 0.0 | 3.0 | 0.00 | 0.00 | 0.00 | 60 | 1023.5 |
| 20260906130422 | 51 | 259 | 1.0 | 2.0 | 0.00 | 0.00 | 0.00 | 61 | 1023.7 |
| 20260906125922 | 50 | 333 | 0.0 | 3.0 | 0.00 | 0.00 | 0.00 | 62 | 1023.6 |
| 20260906125420 | 50 | 19 | 0.0 | 2.0 | 0.00 | 0.00 | 0.00 | 62 | 1023.7 |
| 20260906124919 | 50 | 197 | 0.0 | 2.0 | 0.00 | 0.00 | 0.00 | 63 | 1023.6 |
| 20260906124415 | 50 | 122 | 2.0 | 3.0 | 0.00 | 0.00 | 0.00 | 61 | 1023.5 |
| 20260906123910 | 51 | 4 | 1.0 | 2.0 | 0.00 | 0.00 | 0.00 | 59 | 1023.7 |
| 20260906123410 | 51 | 228 | 0.0 | 2.0 | 0.00 | 0.00 | 0.00 | 59 | 1023.4 |
| 20260906122909 | 51 | 352 | 0.0 | 2.0 | 0.00 | 0.00 | 0.00 | 59 | 1023.5 |
| 20260906122404 | 52 | 135 | 0.0 | 3.0 | 0.00 | 0.00 | 0.00 | 57 | 1023.4 |
| 20260906121901 | 52 | 76 | 2.0 | 3.0 | 0.00 | 0.00 | 0.00 | 58 | 1023.4 |
| 20260906121357 | 52 | 111 | 2.0 | 3.0 | 0.00 | 0.00 | 0.00 | 57 | 1023.2 |
| 20260906120853 | 53 | 82 | 0.0 | 3.0 | 0.00 | 0.00 | 0.00 | 55 | 1023.6 |
| 20260906120348 | 53 | 316 | 1.0 | 2.0 | 0.00 | 0.00 | 0.00 | 55 | 1023.5 |
| 20260906115845 | 53 | 99 | 0.0 | 0.0 | 0.00 | 0.00 | 0.00 | 55 | 1023.4 |
| 20260906115339 | 53 | 165 | 1.0 | 2.0 | 0.00 | 0.00 | 0.00 | 55 | 1023.5 |
| 20260906114839 | 52 | 118 | 1.0 | 2.0 | 0.00 | 0.00 | 0.00 | 56 | 1023.7 |
| 20260906114334 | 52 | 284 | 0.0 | 2.0 | 0.00 | 0.00 | 0.00 | 56 | 1023.6 |
| 20260906113829 | 52 | 104 | 2.0 | 2.0 | 0.00 | 0.00 | 0.00 | 56 | 1023.4 |
| 20260906113328 | 52 | 309 | 1.0 | 2.0 | 0.00 | 0.00 | 0.00 | 57 | 1023.6 |
| 20260906112824 | 53 | 307 | 2.0 | 4.0 | 0.00 | 0.00 | 0.00 | 55 | 1023.7 |
| 20260906112320 | 52 | 96 | 3.0 | 4.0 | 0.00 | 0.00 | 0.00 | 56 | 1023.2 |
| 20260906111820 | 52 | 201 | 1.0 | 2.0 | 0.00 | 0.00 | 0.00 | 57 | 1023.4 |
| 20260906111319 | 52 | 94 | 2.0 | 2.0 | 0.00 | 0.00 | 0.00 | 57 | 1023.5 |
| 20260906110815 | 52 | 319 | 0.0 | 2.0 | 0.00 | 0.00 | 0.00 | 58 | 1023.5 |
| 20260906110311 | 52 | 115 | 1.0 | 2.0 | 0.00 | 0.00 | 0.00 | 59 | 1023.5 |
| 20260906105809 | 52 | 140 | 2.0 | 2.0 | 0.00 | 0.00 | 0.00 | 58 | 1023.5 |
| 20260906105306 | 52 | 105 | 1.0 | 3.0 | 0.00 | 0.00 | 0.00 | 58 | 1023.4 |
| 20260906104801 | 53 | 10 | 0.0 | 3.0 | 0.00 | 0.00 | 0.00 | 58 | 1023.5 |
| 20260906104259 | 53 | 153 | 2.0 | 3.0 | 0.00 | 0.00 | 0.00 | 57 | 1023.6 |
| 20260906103758 | 54 | 118 | 3.0 | 3.0 | 0.00 | 0.00 | 0.00 | 55 | 1023.4 |
| 20260906103257 | 54 | 114 | 0.0 | 3.0 | 0.00 | 0.00 | 0.00 | 54 | 1023.6 |
| 20260906102753 | 54 | 108 | 0.0 | 2.0 | 0.00 | 0.00 | 0.00 | 53 | 1023.0 |
| 20260906102251 | 54 | 234 | 0.0 | 3.0 | 0.00 | 0.00 | 0.00 | 54 | 1023.4 |
| 20260906101747 | 53 | 135 | 0.0 | 2.0 | 0.00 | 0.00 | 0.00 | 55 | 1023.2 |
| 20260906101242 | 53 | 141 | 1.0 | 2.0 | 0.00 | 0.00 | 0.00 | 55 | 1023.4 |
| 20260906100737 | 54 | 103 | 0.0 | 1.0 | 0.00 | 0.00 | 0.00 | 54 | 1023.5 |
| 20260906100237 | 54 | 46 | 0.0 | 2.0 | 0.00 | 0.00 | 0.00 | 53 | 1023.2 |
| 20260906095732 | 54 | 292 | 2.0 | 2.0 | 0.00 | 0.00 | 0.00 | 53 | 1023.4 |
| 20260906095227 | 54 | 103 | 2.0 | 2.0 | 0.00 | 0.00 | 0.00 | 54 | 1023.1 |
| 20260906094726 | 54 | 179 | 0.0 | 2.0 | 0.00 | 0.00 | 0.00 | 53 | 1022.9 |
| 20260906094221 | 54 | 156 | 0.0 | 2.0 | 0.00 | 0.00 | 0.00 | 55 | 1022.9 |
| 20260906093718 | 53 | 119 | 1.0 | 3.0 | 0.00 | 0.00 | 0.00 | 55 | 1023.1 |
| 20260906093213 | 54 | 253 | 0.0 | 2.0 | 0.00 | 0.00 | 0.00 | 54 | 1023.0 |
| 20260906092709 | 54 | 133 | 1.0 | 3.0 | 0.00 | 0.00 | 0.00 | 53 | 1022.9 |
| 20260906092208 | 54 | 145 | 0.0 | 3.0 | 0.00 | 0.00 | 0.00 | 54 | 1023.0 |
| 20260906091704 | 54 | 155 | 1.0 | 3.0 | 0.00 | 0.00 | 0.00 | 54 | 1023.0 |
| 20260906091200 | 55 | 240 | 0.0 | 1.0 | 0.00 | 0.00 | 0.00 | 53 | 1023.0 |
| 20260906090656 | 55 | 113 | 3.0 | 3.0 | 0.00 | 0.00 | 0.00 | 52 | 1022.9 |
| 20260906090156 | 55 | 93 | 0.0 | 3.0 | 0.00 | 0.00 | 0.00 | 51 | 1023.1 |
| 20260906085655 | 56 | 65 | 0.0 | 2.0 | 0.00 | 0.00 | 0.00 | 50 | 1022.9 |
| 20260906085154 | 57 | 26 | 2.0 | 4.0 | 0.00 | 0.00 | 0.00 | 47 | 1023.1 |
| 20260906084649 | 57 | 273 | 2.0 | 4.0 | 0.00 | 0.00 | 0.00 | 47 | 1023.1 |
| 20260906084148 | 58 | 173 | 0.0 | 3.0 | 0.00 | 0.00 | 0.00 | 47 | 1022.7 |
| 20260906083643 | 57 | 135 | 0.0 | 2.0 | 0.00 | 0.00 | 0.00 | 47 | 1023.0 |
| 20260906083139 | 57 | 293 | 0.0 | 1.0 | 0.00 | 0.00 | 0.00 | 48 | 1022.9 |
| 20260906082634 | 57 | 298 | 0.0 | 2.0 | 0.00 | 0.00 | 0.00 | 50 | 1022.9 |
| 20260906082130 | 57 | 65 | 1.0 | 2.0 | 0.00 | 0.00 | 0.00 | 49 | 1022.7 |
| 20260906081626 | 57 | 152 | 1.0 | 2.0 | 0.00 | 0.00 | 0.00 | 49 | 1022.9 |
| 20260906081120 | 57 | 174 | 0.0 | 2.0 | 0.00 | 0.00 | 0.00 | 50 | 1023.1 |
| 20260906080617 | 57 | 153 | 0.0 | 2.0 | 0.00 | 0.00 | 0.00 | 50 | 1023.2 |
| 20260906080113 | 58 | 66 | 0.0 | 2.0 | 0.00 | 0.00 | 0.00 | 49 | 1022.9 |
| 20260906075606 | 58 | 77 | 1.0 | 2.0 | 0.00 | 0.00 | 0.00 | 48 | 1023.0 |
| 20260906075101 | 58 | 304 | 1.0 | 2.0 | 0.00 | 0.00 | 0.00 | 48 | 1022.7 |
| 20260906074556 | 58 | 328 | 0.0 | 2.0 | 0.00 | 0.00 | 0.00 | 48 | 1022.9 |
| 20260906074055 | 57 | 65 | 2.0 | 3.0 | 0.00 | 0.00 | 0.00 | 48 | 1022.7 |
| 20260906073550 | 57 | 347 | 1.0 | 2.0 | 0.00 | 0.00 | 0.00 | 49 | 1023.0 |
| 20260906073047 | 57 | 129 | 0.0 | 2.0 | 0.00 | 0.00 | 0.00 | 48 | 1023.0 |
| 20260906072546 | 57 | 302 | 0.0 | 2.0 | 0.00 | 0.00 | 0.00 | 48 | 1022.9 |
| 20260906072042 | 57 | 110 | 0.0 | 2.0 | 0.00 | 0.00 | 0.00 | 49 | 1023.0 |
| 20260906071539 | 57 | 33 | 0.0 | 3.0 | 0.00 | 0.00 | 0.00 | 49 | 1023.0 |
| 20260906071033 | 57 | 353 | 0.0 | 2.0 | 0.00 | 0.00 | 0.00 | 49 | 1023.2 |
| 20260906070530 | 58 | 345 | 0.0 | 1.0 | 0.00 | 0.00 | 0.00 | 49 | 1023.0 |
| 20260906070025 | 58 | 8 | 0.0 | 2.0 | 0.00 | 0.00 | 0.00 | 49 | 1022.9 |
| 20260906065524 | 58 | 145 | 0.0 | 2.0 | 0.00 | 0.00 | 0.00 | 48 | 1023.0 |
| 20260906065020 | 58 | 136 | 0.0 | 2.0 | 0.00 | 0.00 | 0.00 | 48 | 1022.7 |
| 20260906064517 | 58 | 335 | 0.0 | 2.0 | 0.00 | 0.00 | 0.00 | 48 | 1022.7 |
| 20260906064017 | 57 | 140 | 0.0 | 1.0 | 0.00 | 0.00 | 0.00 | 50 | 1023.1 |
| 20260906063512 | 57 | 160 | 0.0 | 0.0 | 0.00 | 0.00 | 0.00 | 50 | 1023.1 |
| 20260906063008 | 57 | 147 | 0.0 | 1.0 | 0.00 | 0.00 | 0.00 | 50 | 1023.1 |
| 20260906062503 | 58 | 60 | 0.0 | 0.0 | 0.00 | 0.00 | 0.00 | 48 | 1022.9 |
| 20260906061957 | 59 | 293 | 0.0 | 1.0 | 0.00 | 0.00 | 0.00 | 47 | 1022.7 |
| 20260906061454 | 59 | 135 | 0.0 | 0.0 | 0.00 | 0.00 | 0.00 | 46 | 1022.9 |
| 20260906060953 | 59 | 152 | 1.0 | 2.0 | 0.00 | 0.00 | 0.00 | 46 | 1022.7 |
| 20260906060450 | 60 | 97 | 2.0 | 2.0 | 0.00 | 0.00 | 0.00 | 44 | 1022.6 |
| 20260906055946 | 60 | 59 | 0.0 | 3.0 | 0.00 | 0.00 | 0.00 | 43 | 1022.9 |
| 20260906055442 | 62 | 93 | 2.0 | 5.0 | 0.00 | 0.00 | 0.00 | 41 | 1022.6 |
| 20260906054937 | 62 | 37 | 0.0 | 0.0 | 0.00 | 0.00 | 0.00 | 39 | 1022.6 |
| 20260906054432 | 62 | 309 | 0.0 | 0.0 | 0.00 | 0.00 | 0.00 | 39 | 1022.2 |
| 20260906053928 | 62 | 326 | 0.0 | 0.0 | 0.00 | 0.00 | 0.00 | 39 | 1022.6 |
| 20260906053424 | 62 | 279 | 0.0 | 1.0 | 0.00 | 0.00 | 0.00 | 39 | 1022.9 |
| 20260906052919 | 61 | 44 | 0.0 | 0.0 | 0.00 | 0.00 | 0.00 | 40 | 1022.9 |
| 20260906052415 | 62 | 37 | 0.0 | 0.0 | 0.00 | 0.00 | 0.00 | 40 | 1023.0 |
| 20260906051912 | 62 | 293 | 0.0 | 0.0 | 0.00 | 0.00 | 0.00 | 40 | 1022.9 |
| 20260906051412 | 62 | 293 | 0.0 | 0.0 | 0.00 | 0.00 | 0.00 | 40 | 1022.9 |
| 20260906050908 | 62 | 230 | 0.0 | 0.0 | 0.00 | 0.00 | 0.00 | 40 | 1022.5 |
| 20260906050408 | 61 | 37 | 0.0 | 0.0 | 0.00 | 0.00 | 0.00 | 41 | 1022.7 |
| 20260906045907 | 62 | 324 | 0.0 | 1.0 | 0.00 | 0.00 | 0.00 | 41 | 1022.6 |
| 20260906045406 | 62 | 279 | 1.0 | 2.0 | 0.00 | 0.00 | 0.00 | 42 | 1022.7 |
| 20260906044903 | 62 | 329 | 0.0 | 0.0 | 0.00 | 0.00 | 0.00 | 42 | 1022.7 |
| 20260906044402 | 62 | 309 | 0.0 | 1.0 | 0.00 | 0.00 | 0.00 | 42 | 1022.6 |
| 20260906043858 | 63 | 269 | 0.0 | 1.0 | 0.00 | 0.00 | 0.00 | 41 | 1022.9 |
| 20260906043355 | 63 | 122 | 0.0 | 2.0 | 0.00 | 0.00 | 0.00 | 41 | 1022.7 |
| 20260906042855 | 63 | 102 | 1.0 | 2.0 | 0.00 | 0.00 | 0.00 | 40 | 1022.7 |
| 20260906042353 | 64 | 137 | 0.0 | 2.0 | 0.00 | 0.00 | 0.00 | 39 | 1022.6 |
| 20260906041849 | 65 | 315 | 0.0 | 0.0 | 0.00 | 0.00 | 0.00 | 38 | 1022.5 |
| 20260906041345 | 64 | 129 | 0.0 | 0.0 | 0.00 | 0.00 | 0.00 | 38 | 1022.6 |
| 20260906040845 | 64 | 326 | 0.0 | 0.0 | 0.00 | 0.00 | 0.00 | 38 | 1022.6 |
| 20260906040340 | 65 | 89 | 0.0 | 0.0 | 0.00 | 0.00 | 0.00 | 38 | 1022.9 |
| 20260906035835 | 65 | 260 | 0.0 | 1.0 | 0.00 | 0.00 | 0.00 | 37 | 1022.7 |
| 20260906035331 | 65 | 224 | 0.0 | 1.0 | 0.00 | 0.00 | 0.00 | 37 | 1022.7 |
| 20260906034827 | 65 | 89 | 0.0 | 1.0 | 0.00 | 0.00 | 0.00 | 37 | 1022.5 |
| 20260906034327 | 65 | 133 | 0.0 | 0.0 | 0.00 | 0.00 | 0.00 | 36 | 1022.6 |
| 20260906033823 | 66 | 154 | 0.0 | 0.0 | 0.00 | 0.00 | 0.00 | 36 | 1022.4 |
| 20260906033321 | 66 | 159 | 1.0 | 2.0 | 0.00 | 0.00 | 0.00 | 34 | 1022.7 |
| 20260906032818 | 67 | 235 | 0.0 | 1.0 | 0.00 | 0.00 | 0.00 | 33 | 1022.5 |
| 20260906032314 | 67 | 50 | 0.0 | 1.0 | 0.00 | 0.00 | 0.00 | 32 | 1022.5 |
| 20260906031809 | 67 | 50 | 0.0 | 1.0 | 0.00 | 0.00 | 0.00 | 32 | 1022.4 |
| 20260906031304 | 68 | 197 | 0.0 | 1.0 | 0.00 | 0.00 | 0.00 | 32 | 1022.4 |
| 20260906030804 | 67 | 3 | 0.0 | 3.0 | 0.00 | 0.00 | 0.00 | 33 | 1022.2 |
| 20260906030259 | 67 | 15 | 1.0 | 2.0 | 0.00 | 0.00 | 0.00 | 33 | 1022.1 |
| 20260906025759 | 67 | 307 | 0.0 | 2.0 | 0.00 | 0.00 | 0.00 | 33 | 1022.0 |
| 20260906025253 | 68 | 193 | 0.0 | 2.0 | 0.00 | 0.00 | 0.00 | 34 | 1022.0 |
| 20260906024752 | 68 | 305 | 2.0 | 2.0 | 0.00 | 0.00 | 0.00 | 33 | 1022.0 |
| 20260906024251 | 68 | 300 | 3.0 | 4.0 | 0.00 | 0.00 | 0.00 | 32 | 1021.9 |
| 20260906023747 | 68 | 259 | 1.0 | 3.0 | 0.00 | 0.00 | 0.00 | 32 | 1021.9 |
| 20260906023242 | 68 | 284 | 1.0 | 3.0 | 0.00 | 0.00 | 0.00 | 32 | 1022.0 |
| 20260906022738 | 68 | 17 | 0.0 | 2.0 | 0.00 | 0.00 | 0.00 | 32 | 1022.1 |
| 20260906022233 | 68 | 314 | 2.0 | 3.0 | 0.00 | 0.00 | 0.00 | 32 | 1021.9 |
| 20260906021729 | 68 | 322 | 0.0 | 1.0 | 0.00 | 0.00 | 0.00 | 33 | 1021.6 |
| 20260906021227 | 68 | 9 | 0.0 | 2.0 | 0.00 | 0.00 | 0.00 | 33 | 1021.5 |
| 20260906020723 | 68 | 309 | 2.0 | 2.0 | 0.00 | 0.00 | 0.00 | 33 | 1021.5 |
| 20260906020217 | 68 | 20 | 0.0 | 2.0 | 0.00 | 0.00 | 0.00 | 33 | 1021.6 |
| 20260906015712 | 69 | 96 | 0.0 | 1.0 | 0.00 | 0.00 | 0.00 | 33 | 1021.1 |
| 20260906015210 | 69 | 345 | 1.0 | 3.0 | 0.00 | 0.00 | 0.00 | 32 | 1021.5 |
| 20260906014710 | 69 | 96 | 0.0 | 1.0 | 0.00 | 0.00 | 0.00 | 31 | 1021.5 |
| 20260906014207 | 70 | 86 | 1.0 | 2.0 | 0.00 | 0.00 | 0.00 | 31 | 1021.4 |
| 20260906013702 | 71 | 287 | 1.0 | 2.0 | 0.00 | 0.00 | 0.00 | 31 | 1021.4 |
| 20260906013157 | 71 | 310 | 1.0 | 2.0 | 0.00 | 0.00 | 0.00 | 29 | 1021.1 |
| 20260906012658 | 72 | 327 | 3.0 | 4.0 | 0.00 | 0.00 | 0.00 | 29 | 1021.5 |
| 20260906012157 | 72 | 263 | 0.0 | 3.0 | 0.00 | 0.00 | 0.00 | 30 | 1021.6 |
| 20260906011653 | 72 | 14 | 1.0 | 2.0 | 0.00 | 0.00 | 0.00 | 29 | 1021.2 |
| 20260906011148 | 73 | 64 | 0.0 | 4.0 | 0.00 | 0.00 | 0.00 | 28 | 1021.5 |
| 20260906010643 | 73 | 311 | 4.0 | 5.0 | 0.00 | 0.00 | 0.00 | 28 | 1021.6 |
| 20260906010139 | 74 | 320 | 3.0 | 6.0 | 0.00 | 0.00 | 0.00 | 28 | 1021.5 |
| 20260906005639 | 74 | 300 | 3.0 | 6.0 | 0.00 | 0.00 | 0.00 | 27 | 1021.2 |
| 20260906005138 | 75 | 322 | 3.0 | 4.0 | 0.00 | 0.00 | 0.00 | 27 | 1021.6 |
| 20260906004637 | 76 | 275 | 4.0 | 6.0 | 0.00 | 0.00 | 0.00 | 27 | 1021.5 |
| 20260906004132 | 76 | 302 | 6.0 | 6.0 | 0.00 | 0.00 | 0.00 | 26 | 1021.6 |
| 20260906003627 | 76 | 318 | 5.0 | 6.0 | 0.00 | 0.00 | 0.00 | 26 | 1021.4 |
| 20260906003123 | 77 | 310 | 5.0 | 6.0 | 0.00 | 0.00 | 0.00 | 25 | 1021.4 |
| 20260906002618 | 78 | 330 | 5.0 | 6.0 | 0.00 | 0.00 | 0.00 | 25 | 1021.5 |
| 20260906002113 | 78 | 291 | 5.0 | 5.0 | 0.00 | 0.00 | 0.00 | 24 | 1021.6 |
| 20260906001608 | 78 | 306 | 5.0 | 8.0 | 0.00 | 0.00 | 0.00 | 25 | 1021.5 |
| 20260906001102 | 78 | 327 | 6.0 | 6.0 | 0.00 | 0.00 | 0.00 | 25 | 1021.4 |
| 20260906000558 | 78 | 310 | 5.0 | 5.0 | 0.00 | 0.00 | 0.00 | 26 | 1021.5 |
| 20260906000053 | 78 | 329 | 8.0 | 9.0 | 0.00 | 0.00 | 0.00 | 24 | 1021.5 |
| 20260905235552 | 79 | 291 | 8.0 | 8.0 | 0.00 | 0.00 | 0.00 | 24 | 1021.4 |
| 20260905235048 | 80 | 320 | 5.0 | 7.0 | 0.00 | 0.00 | 0.00 | 24 | 1021.5 |
| 20260905234543 | 79 | 341 | 3.0 | 9.0 | 0.00 | 0.00 | 0.00 | 25 | 1021.1 |
| 20260905234038 | 79 | 336 | 5.0 | 9.0 | 0.00 | 0.00 | 0.00 | 25 | 1021.5 |
| 20260905233532 | 78 | 310 | 7.0 | 9.0 | 0.00 | 0.00 | 0.00 | 26 | 1021.6 |
| 20260905233032 | 78 | 292 | 6.0 | 10.0 | 0.00 | 0.00 | 0.00 | 26 | 1021.2 |
| 20260905232528 | 77 | 308 | 8.0 | 9.0 | 0.00 | 0.00 | 0.00 | 26 | 1021.5 |
| 20260905232023 | 78 | 300 | 8.0 | 11.0 | 0.00 | 0.00 | 0.00 | 26 | 1021.4 |
| 20260905231518 | 79 | 318 | 7.0 | 9.0 | 0.00 | 0.00 | 0.00 | 25 | 1021.5 |
| 20260905231015 | 78 | 308 | 9.0 | 11.0 | 0.00 | 0.00 | 0.00 | 26 | 1021.0 |
| 20260905230514 | 79 | 320 | 5.0 | 9.0 | 0.00 | 0.00 | 0.00 | 26 | 1021.1 |
| 20260905230012 | 79 | 317 | 8.0 | 11.0 | 0.00 | 0.00 | 0.00 | 25 | 1021.1 |
| 20260905225507 | 79 | 309 | 9.0 | 13.0 | 0.00 | 0.00 | 0.00 | 25 | 1021.1 |
| 20260905225002 | 78 | 288 | 5.0 | 10.0 | 0.00 | 0.00 | 0.00 | 26 | 1021.1 |
| 20260905224457 | 78 | 322 | 6.0 | 10.0 | 0.00 | 0.00 | 0.00 | 28 | 1021.2 |